#timestamp,LO_Frequency,Hit,StdDev 
1546956015.3,286046996.2,N
1546956035.1,286046994.9,N
1546956055.9,286046995.4,N
1546956075.7,286046991.7,N
1546956095.5,286046987.8,N
1546956115.4,286046982.6,N
1546956135.2,286046983.1,N
1546956155.1,286046980.9,N
1546956156.0,286046980.9,N
1546956175.8,286046980.6,N
1546956195.6,286046982.1,N
1546956215.5,286046987.4,N
1546956235.3,286046986.4,N
1546956255.1,286046984.6,N
1546956275.9,286046985.0,N
1546956295.7,286046993.2,N
1546956315.6,286046997.2,N
1546956335.4,286047002.8,N
1546956355.2,286046999.6,N
1546956375.1,286046994.7,N
1546956376.0,286046994.7,N
1546956395.8,286046991.2,N
1546956415.6,286046993.5,N
1546956435.5,286046991.4,N
1546956455.3,286046989.4,N
1546956475.2,286046984.0,N
1546956495.0,286046985.6,N
1546956495.9,286046985.6,N
1546956515.7,286046986.0,N
1546956535.6,286046985.1,N
1546956555.4,286046980.7,Y
1546956575.3,286046997.7,P
1546956595.1,286047000.4,N
1546956615.8,286047004.1,N
1546956635.7,286047009.1,N
1546956655.5,286047015.2,N
1546956675.4,286047013.6,N
1546956695.2,286047008.4,N
1546956715.0,286047006.0,N
1546956715.9,286047006.0,N
1546956735.8,286047003.5,N
1546956755.6,286046999.3,N
1546956775.4,286046999.7,N
1546956795.3,286047004.6,N
1546956815.1,286047006.4,N
1546956835.9,286047010.2,N
1546956855.7,286047007.5,N
1546956875.5,286047007.6,N
1546956895.4,286047002.5,N
1546956915.2,286047001.6,N
1546956935.1,286047002.7,N
1546956936.0,286047002.7,N
1546956955.8,286046996.5,N
1546956975.6,286046993.6,N
1546956995.5,286046995.9,N
1546957015.3,286046994.8,N
1546957035.1,286046998.6,N
1546957055.9,286046998.8,N
1546957075.7,286046994.0,N
1546957095.6,286046992.9,N
1546957115.4,286046991.7,N
1546957135.2,286046996.5,N
1546957155.1,286046997.0,N
1546957156.0,286046997.0,N
1546957175.8,286046995.5,N
1546957195.6,286046997.8,N
1546957215.5,286047003.4,N
1546957235.3,286047008.3,N
1546957255.2,286047012.4,N
1546957275.9,286047007.7,N
1546957295.7,286047009.9,N
1546957315.6,286047013.1,N
1546957335.4,286047011.5,N
1546957355.2,286047009.7,N
1546957375.1,286047018.0,N
1546957376.0,286047018.0,N
1546957395.8,286047012.9,N
1546957415.7,286047007.8,N
1546957435.5,286047003.0,N
1546957455.3,286047006.1,N
1546957475.2,286047010.7,N
1546957495.0,286047007.5,N
1546957495.9,286047007.5,N
1546957515.8,286047012.1,N
1546957535.6,286047013.7,N
1546957555.4,286047013.0,N
1546957575.3,286047011.8,N
1546957595.1,286047010.3,N
1546957615.8,286047007.6,N
1546957635.7,286047005.2,N
1546957655.5,286047003.6,N
1546957675.3,286047003.5,N
1546957695.2,286047000.7,N
1546957715.0,286046999.3,N
1546957715.9,286046999.3,N
1546957735.8,286046999.7,N
1546957755.6,286047010.4,N
1546957775.4,286047008.9,N
1546957795.3,286047012.3,N
1546957815.1,286047016.3,Y
1546957835.9,286047007.4,P
1546957855.7,286047001.6,N
1546957875.5,286047000.4,N
1546957895.4,286046997.4,N
1546957915.2,286046994.0,N
1546957935.0,286046992.4,N
1546957935.9,286046992.4,N
1546957955.8,286046988.9,N
1546957975.6,286046984.2,N
1546957995.5,286046983.7,N
1546958015.3,286046984.2,N
1546958035.1,286046980.5,N
1546958055.9,286046978.9,N
1546958075.7,286046979.8,N
1546958095.5,286046976.9,N
1546958115.4,286046977.0,N
1546958135.2,286046974.3,N
1546958155.1,286046973.1,N
1546958156.0,286046973.1,N
1546958175.8,286046972.7,N
1546958195.6,286046970.6,N
1546958215.5,286046972.2,N
1546958235.3,286046967.9,N
1546958255.1,286046970.8,N
1546958275.9,286046970.3,N
1546958295.7,286046966.4,N
1546958315.6,286046972.1,N
1546958335.4,286046972.4,N
1546958355.3,286046972.5,N
1546958375.1,286046972.7,N
1546958376.0,286046972.7,N
1546958395.8,286046973.6,N
1546958415.7,286046969.6,Y
1546958435.5,286046991.9,P
1546958455.4,286046989.2,N
1546958475.2,286046989.8,N
1546958495.1,286046985.7,N
1546958496.0,286046985.7,Y
1546958515.8,286046997.3,P
1546958535.6,286046998.7,N
1546958555.5,286046994.9,N
1546958575.3,286046995.3,N
1546958595.1,286047000.6,N
1546958615.9,286047013.2,Y
1546958635.7,286047016.5,P
1546958655.6,286047014.3,N
1546958675.4,286047013.5,N
1546958695.2,286047008.9,N
1546958715.1,286047004.7,N
1546958716.0,286047004.7,N
1546958735.8,286047005.8,N
1546958785.7,286047003.7,E
1546958795.6,286047004.0,N
1546958815.5,286047004.8,P
1546958835.3,286047008.9,P
1546958855.1,286047004.6,N
1546958875.9,286047001.3,N
1546958895.7,286047003.7,N
1546958915.6,286047018.0,Y
1546958935.4,286047014.8,P
1546958955.2,286047011.5,N
1546958975.1,286047008.6,N
1546958976.0,286047008.6,N
1546958995.8,286047003.7,N
1546959015.7,286047002.1,N
1546959035.5,286047001.7,N
1546959055.3,286047003.1,N
1546959075.2,286047003.1,N
1546959095.0,286047004.4,N
1546959095.9,286047004.4,N
1546959115.8,286047002.8,N
1546959135.6,286046995.6,N
1546959155.4,286046999.3,N
1546959175.3,286047001.2,N
1546959195.1,286046999.6,N
1546959215.8,286046995.2,N
1546959235.7,286046994.0,N
1546959255.5,286046999.2,N
1546959275.4,286047000.8,N
1546959295.2,286046996.5,N
1546959315.0,286046998.8,N
1546959315.9,286046998.8,N
1546959335.8,286046995.8,N
1546959355.6,286046994.6,N
1546959375.5,286046988.5,N
1546959395.3,286046986.0,N
1546959415.1,286046986.4,N
1546959435.9,286046988.4,N
1546959455.7,286046992.4,N
1546959475.5,286046997.1,N
1546959495.4,286046999.2,N
1546959515.2,286046997.1,N
1546959535.1,286046996.6,N
1546959536.0,286046996.6,N
1546959555.8,286046997.4,N
1546959575.6,286046996.7,N
1546959595.5,286046997.5,N
